Regional Weather Roundup
Issued by NWS

Home | Current Version | Previous Version | Text Only | Print | Product List | Glossary Off
Versions: 1 2 3 4 5 6 7 8 9 10 11 12 13 14 15 16 17 18 19 20 21 22 23 24 25 26 27 28 29 30 31 32 33 34 35 36 37 38 39 40 41 42 43 44 45 46 47 48 49 50

000
ASUS43 KBIS 231410
RWRND

NORTH DAKOTA REGIONAL WEATHER ROUNDUP
NATIONAL WEATHER SERVICE BISMARCK ND
900 AM CDT SAT SEP 23 2017

NOTE: "FAIR" INDICATES FEW OR NO CLOUDS BELOW 12,000 FEET WITH NO
SIGNIFICANT WEATHER AND/OR OBSTRUCTIONS TO VISIBILITY.


NDZ001>003-009>011-017-231500-
NORTHWEST NORTH DAKOTA

CITY           SKY/WX    TMP DP  RH WIND       PRES   REMARKS
WILLISTON      CLOUDY    45  41  86 N6        30.13F
MINOT          CLOUDY    47  44  90 NW10      30.10R
MINOT AFB      CLOUDY    45  43  93 NW6       30.09R
$$

NDZ018>021-031>035-040>046-231500-
SOUTHWEST NORTH DAKOTA

CITY           SKY/WX    TMP DP  RH WIND       PRES   REMARKS
BISMARCK       CLOUDY    49  47  93 N7        30.11R
GARRISON         N/A     46  45  96 N7        30.10R
HETTINGER ARPT CLOUDY    44  41  89 N8        30.10R
$$

NDZ004>008-012>016-024-026-027-054-231500-
NORTHEAST NORTH DAKOTA

CITY           SKY/WX    TMP DP  RH WIND       PRES   REMARKS
GRAND FORKS    CLOUDY    53  49  86 N12       30.00R
GRND FRKS AFB  CLOUDY    52  46  81 N13       30.02F
DEVILS LAKE    CLOUDY    48  44  86 N14       30.06R
$$

NDZ022-023-025-028>030-036>039-047>053-231500-
SOUTHEAST NORTH DAKOTA

CITY           SKY/WX    TMP DP  RH WIND       PRES   REMARKS
FARGO          CLOUDY    52  49  89 N10       30.01R
JAMESTOWN      CLOUDY    50  45  83 N17       30.02R
$$





USA.gov is the U.S. government's official web portal to all federal, state and local government web resources and services.